Location: *
(51.0333°S, 178.4667°E)
Time: 17:17:02
(UTC+00:00)

STARLINK-69 - Pass Details

Date: 15 November 2019
Orbit: 529 x 530 km, 53.0° (Epoch: 11 December)

Event Time Altitude Azimuth Distance (km) Brightness Sun altitude
Rises 10:33:51 0° 255° (WSW) 2,686 7.6 -18.5°
Reaches altitude 10° 10:36:04 10° 253° (WSW) 1,795 6.7 -18.6°
Maximum altitude 10:40:09 80° 165° (SSE) 550 3.6 -18.8°
Enters shadow 10:42:25 25° 80° (E) 1,096 4.9 -18.9°
